Location: Newark
(30.3369°N, 81.6614°W)
Time: 14:53:05
(UTC+00:00)

Hubble Space Telescope - Visible Passes

Search period start: 27 September 2020 00:00
Search period end: 07 October 2020 00:00
Orbit: 536 x 540 km, 28.5° (Epoch: 26 September)

Date Brightness Start Highest point End Pass type
(mag) Time Alt. Az. Time Alt. Az. Time Alt. Az.
27 Sep 2.8 09:05:46 24° ESE 09:05:46 24° ESE 09:07:47 10° E visible
27 Sep 1.0 10:41:06 11° WSW 10:44:59 66° S 10:49:04 10° E visible
28 Sep 3.2 08:55:43 20° ESE 08:55:43 20° ESE 08:57:07 10° E visible
28 Sep 0.9 10:31:03 16° W 10:34:15 68° S 10:38:21 10° E visible
29 Sep 3.6 08:45:39 15° E 08:45:39 15° E 08:46:27 10° E visible
29 Sep 0.8 10:20:59 22° W 10:23:32 69° S 10:27:37 10° E visible
30 Sep 4.0 08:35:36 11° E 08:35:36 11° E 08:35:45 10° E visible
30 Sep 0.8 10:10:55 30° WSW 10:12:48 67° S 10:16:54 10° E visible
01 Oct 0.8 10:00:53 42° WSW 10:02:04 64° S 10:06:09 10° ESE visible
02 Oct 0.8 09:50:51 54° SW 09:51:21 59° S 09:55:24 10° ESE visible
03 Oct 1.1 09:40:52 52° S 09:40:52 52° S 09:44:37 10° ESE visible
04 Oct 1.8 09:30:55 37° SSE 09:30:55 37° SSE 09:33:49 10° ESE visible
05 Oct 2.6 09:21:02 24° SE 09:21:02 24° SE 09:22:58 10° SE visible
05 Oct 2.8 10:57:31 10° WSW 10:59:50 15° SSW 11:02:09 10° S visible
06 Oct 3.3 09:11:11 15° SE 09:11:11 15° SE 09:12:05 10° SE visible
06 Oct 3.0 10:47:41 10° SW 10:49:00 11° SSW 10:50:20 10° S visible
